Retour au catalogue

SL-19 R/B

ActifPO
NORAD 37155·ROCKET BODY·🇷🇺 Russia

Lancé Sep 8, 2010 depuis Plesetsk Cosmodrome

Loading…

Prochains Passages (prochaines 24 heures)

TLE

FraisSource: Space-Track

Époque: Sep 14, 2026, 20:53 UTC

1 37155U 10043D   26257.87019179  .00000016  00000-0  25880-4 0  9997
2 37155  82.4579 117.0998 0198249 320.8016  58.6280 12.78572030747615

Suivez SL-19 R/B en temps réel avec AllMySat

Download on the App Store